Weather in Sagunovka

Ukraine / Cherkassi District     49°17′22″N   32°21′53″E
temp.,
°C
wind,
m/s
gust,
m/s
humid.,
%
clouds,
%
prec.,
mm/h
press.,
hPa
HPBL,
m
12 april, mon
mon1200:00+8ne3458100 0.0 102666
03:00+7nne356768 0.0 102575
06:00+6nne3870100 0.0 1024153
09:00+7ne3680100 0.2 1023288
12:00+9ne347494 0.6 1022542
15:00+9nnw2380100 0.6 1022143
18:00+10w2281100 0.0 102139
21:00+9w2385100 0.1 102270
13 april, tue
tue1300:00+9nw2389100 0.0 102066
03:00+9w1191100 0.1 102020
06:00+9w1195100 0.8 102026
09:00+9s2295100 1.6 102062
12:00+10s2486100 0.1 1020293
15:00+11s4682100 0.1 1020542
18:00+12s357544 0.0 1019751
21:00+10e118499 0.0 102014
14 april, wed
wed1400:00+10s238775 0.0 101960
03:00+7s229181 0.0 101837
06:00+6s229277 0.0 101827
09:00+10sse3578100 0.0 1018267
12:00+14sse455510 0.0 10171202
15:00+15s5551100 0.1 10161470
18:00+14s2356100 0.1 1015913
21:00+12ne2268100 0.2 101615
15 april, thu
thu1500:00+11e2272100 0.0 101524
03:00+9sse337699 0.0 101456
06:00+9se3478100 0.0 101576
09:00+11sse1269100 0.0 1014268
12:00+12ene226598 0.0 1014545
15:00+15ne115493 0.0 10131173
18:00+14ne325897 0.1 1012629
21:00+11n2273100 0.2 101216
16 april, fri
fri1600:00+10ene2493100 1.1 1011151
03:00+10ene2496100 7.8 1011162
06:00+9n1192100 7.3 1011100
09:00+11ne228198 7.4 1011426
12:00+13ssw237129 0.4 1011809
15:00+14se125996 1.6 10111196
18:00+12wnw447846 1.8 1012378
21:00+9w359595 1.9 1013143